DW3901 Weather Reports


Display with metric or nautical units.
time (UTC)temp
F
wind
direction
speed
MPH
gust
MPH
rain 1hr
in
rain 24hr
in
rain mn
in
humidity
%
barometer
mb
20260509053102 69 154 2.0 5.0 0.00 0.00 0.00 86 1007.2
20260509051558 69 213 3.0 6.0 0.00 0.00 0.00 86 1007.7
20260509050055 68 223 0.0 2.0 0.00 0.00 0.00 86 1007.8
20260509044558 69 209 1.0 4.0 0.00 0.00 0.00 85 1007.2
20260509043059 69 162 1.0 2.0 0.00 0.00 0.00 85 1007.4
20260509041554 69 174 0.0 0.0 0.00 0.00 0.00 84 1007.0
20260509040053 69 122 0.0 6.0 0.00 0.00 0.00 84 1006.8
20260509034600 69 104 5.0 13.0 0.00 0.00 0.00 84 1006.5
20260509033052 70 139 7.0 13.0 0.00 0.00 0.00 83 1006.8
20260509031551 70 109 3.0 6.0 0.00 0.00 0.00 83 1006.9
20260509030051 70 311 0.0 2.0 0.00 0.00 0.00 83 1007.2
20260509024552 70 56 0.0 2.0 0.00 0.00 0.00 83 1007.3
20260509023050 70 79 2.0 3.0 0.00 0.00 0.00 81 1007.0
20260509021550 70 92 1.0 3.0 0.00 0.00 0.00 80 1006.7
20260509020048 70 129 2.0 7.0 0.00 0.00 0.00 79 1006.1
20260509014550 71 155 4.0 6.0 0.00 0.00 0.00 77 1005.7
20260509013048 71 141 4.0 7.0 0.00 0.00 0.00 76 1005.9
20260509011547 72 149 3.0 7.0 0.00 0.00 0.00 75 1005.8
20260509010047 72 147 4.0 7.0 0.00 0.00 0.00 74 1005.7
20260509004548 73 155 6.0 11.0 0.00 0.00 0.00 73 1005.6
20260509003046 73 148 6.0 10.0 0.00 0.00 0.00 73 1005.4
20260509001545 74 166 7.0 13.0 0.00 0.00 0.00 73 1005.3
20260509000044 74 168 9.0 13.0 0.00 0.00 0.00 72 1005.4
20260508234546 74 149 9.0 15.0 0.00 0.00 0.00 71 1005.4
20260508233042 75 162 8.0 15.0 0.00 0.00 0.00 70 1005.3
20260508231602 75 146 8.0 14.0 0.00 0.00 0.00 69 1005.6
20260508230054 76 138 8.0 15.0 0.00 0.00 0.00 68 1005.6
20260508224539 76 150 9.0 13.0 0.00 0.00 0.00 67 1005.6
20260508223043 76 131 9.0 15.0 0.00 0.00 0.00 65 1005.6
20260508221539 76 121 8.0 13.0 0.00 0.00 0.00 65 1005.7
20260508220040 76 142 8.0 13.0 0.00 0.00 0.00 66 1005.5
20260508214554 77 127 8.0 13.0 0.00 0.00 0.00 65 1005.5
20260508213036 77 104 10.0 17.0 0.00 0.00 0.00 66 1005.7
20260508211539 77 146 9.0 16.0 0.00 0.00 0.00 65 1006.2
20260508210030 77 144 8.0 14.0 0.00 0.00 0.00 66 1006.6
20260508204527 77 169 10.0 15.0 0.00 0.00 0.00 64 1007.0
20260508203026 76 157 8.0 12.0 0.00 0.00 0.00 65 1007.1
20260508201520 76 153 8.0 12.0 0.00 0.00 0.00 66 1007.5
20260508200016 75 131 6.0 11.0 0.00 0.00 0.00 66 1007.7
20260508194511 74 138 6.0 12.0 0.00 0.00 0.00 64 1007.7
20260508193010 75 140 9.0 16.0 0.00 0.00 0.00 65 1007.8
20260508191525 74 157 8.0 12.0 0.00 0.00 0.00 65 1007.9
20260508190006 74 136 9.0 12.0 0.00 0.00 0.00 64 1008.0
20260508184504 74 163 8.0 13.0 0.00 0.00 0.00 65 1008.1
20260508183001 74 119 5.0 13.0 0.00 0.00 0.00 66 1008.4
20260508181558 73 160 5.0 11.0 0.00 0.00 0.00 67 1008.8
20260508180110 72 82 5.0 10.0 0.00 0.00 0.00 68 1008.9
20260508174602 72 98 6.0 9.0 0.00 0.00 0.00 66 1009.4
20260508173048 71 176 5.0 10.0 0.00 0.00 0.00 70 1009.8
20260508171545 70 149 6.0 11.0 0.00 0.00 0.00 70 1010.1
20260508170042 69 169 5.0 11.0 0.00 0.00 0.00 71 1010.4
20260508164536 68 189 4.0 8.0 0.00 0.00 0.00 76 1010.7
20260508163037 67 159 5.0 10.0 0.00 0.00 0.00 78 1011.0
20260508161534 66 194 4.0 8.0 0.00 0.00 0.00 81 1011.0
20260508160028 65 148 6.0 8.0 0.00 0.00 0.00 82 1011.0
20260508154528 64 146 3.0 8.0 0.00 0.00 0.00 82 1011.6
20260508153054 64 139 3.0 7.0 0.00 0.00 0.00 82 1011.2
20260508151553 64 146 2.0 9.0 0.00 0.00 0.00 83 1011.4
20260508150052 64 140 5.0 10.0 0.00 0.00 0.00 81 1011.6
20260508144550 64 111 5.0 10.0 0.00 0.00 0.00 85 1011.4
20260508143054 63 115 7.0 10.0 0.00 0.00 0.00 85 1011.5
20260508141547 63 121 4.0 7.0 0.00 0.00 0.00 88 1011.8
20260508140043 62 107 2.0 4.0 0.00 0.00 0.00 88 1012.1
20260508134545 61 147 2.0 8.0 0.00 0.00 0.00 90 1012.1
20260508133043 61 132 1.0 3.0 0.00 0.00 0.00 91 1012.1
20260508131544 61 105 3.0 6.0 0.00 0.00 0.00 91 1011.9
20260508130040 60 109 4.0 7.0 0.00 0.00 0.00 90 1011.8
20260508124539 60 173 0.0 0.0 0.00 0.00 0.00 90 1012.2
20260508123039 59 173 0.0 2.0 0.00 0.00 0.00 89 1012.5
20260508121542 59 109 0.0 3.0 0.00 0.00 0.00 90 1012.2
20260508120042 59 130 4.0 9.0 0.00 0.00 0.00 89 1011.9
20260508114545 59 150 3.0 13.0 0.00 0.00 0.00 88 1011.8
20260508113041 59 130 10.0 14.0 0.00 0.00 0.00 89 1011.3
20260508111549 60 117 6.0 10.0 0.00 0.00 0.00 90 1011.5
20260508110034 60 157 7.0 13.0 0.00 0.00 0.00 90 1012.1
20260508104536 60 159 3.0 6.0 0.00 0.00 0.00 89 1012.3
20260508103036 59 189 2.0 5.0 0.00 0.00 0.00 90 1012.1
20260508101532 59 344 2.0 3.0 0.00 0.00 0.00 89 1010.9
20260508100030 59 59 1.0 3.0 0.00 0.00 0.00 87 1010.9
20260508094529 60 119 0.0 3.0 0.00 0.00 0.00 86 1011.2
20260508093031 60 115 5.0 8.0 0.00 0.00 0.00 86 1011.0
20260508091527 60 138 4.0 8.0 0.00 0.00 0.00 85 1011.3
20260508090025 61 150 2.0 4.0 0.00 0.00 0.00 83 1011.4
20260508084525 61 190 2.0 5.0 0.00 0.00 0.00 83 1011.6
20260508083024 61 177 2.0 5.0 0.00 0.00 0.00 83 1011.9
20260508081523 61 140 8.0 12.0 0.00 0.00 0.00 83 1011.3
20260508080025 61 142 3.0 6.0 0.00 0.00 0.00 83 1012.5
20260508074525 61 184 4.0 7.0 0.00 0.00 0.00 82 1012.6
20260508073019 61 129 3.0 5.0 0.00 0.00 0.00 81 1012.0
20260508071517 61 102 2.0 4.0 0.00 0.00 0.00 81 1012.3
20260508070014 60 126 2.0 4.0 0.00 0.00 0.00 82 1012.8
20260508064522 60 164 3.0 4.0 0.00 0.00 0.00 81 1013.2
20260508063013 61 92 0.0 2.0 0.00 0.00 0.00 80 1013.2
20260508061512 61 92 0.0 1.0 0.00 0.00 0.00 80 1013.0
20260508060010 61 92 1.0 3.0 0.00 0.00 0.00 82 1012.9
20260508054511 61 64 0.0 0.0 0.00 0.00 0.00 82 1013.0